Weather Roundup
Issued by NWS Chicago, IL

Home | Current Version | Previous Version | Graphics & Text | Print | Product List | Glossary On
Versions: 1 2 3 4 5 6 7 8 9 10 11 12 13 14 15 16 17 18 19 20 21 22 23 24 25 26 27 28 29 30 31 32 33 34 35 36 37 38 39 40 41 42 43 44 45 46 47 48 49 50
000
NZUS59 KLOT 251708
HRRLOT

CHICAGO AREA WEATHER ROUNDUP
NATIONAL WEATHER SERVICE CHICAGO/ROMEOVILLE IL
1200 PM CDT MON MAY 25 2015

NOTE: "FAIR" INDICATES FEW OR NO CLOUDS BELOW 12,000 FEET WITH NO
SIGNIFICANT WEATHER AND/OR OBSTRUCTIONS TO VISIBILITY.

* THESE STATIONS ARE NOT UNDER NWS QUALITY CONTROL. THEY ALSO MAY NOT
  REPORT WEATHER SUCH AS PRECIPITATION OR FOG.

ILZ005-006-012>014-019>023-251800-
NORTHEAST ILLINOIS

CITY           SKY/WX    TMP DP  RH WIND       PRES   REMARKS
OHARE          LGT RAIN  69  66  90 SW12      29.87S
MIDWAY         LGT RAIN  72  65  78 SW21G30   29.89S
AURORA         CLOUDY    72  63  73 SW14G24   29.89R
LANSING*       PTSUNNY   74  63  67 SW23G33   29.91S
JOLIET*        CLOUDY    71  68  88 SW15      29.91R
WAUKEGAN       PTSUNNY   73  63  70 SW20G30   29.85R
DUPAGE AIRPORT CLOUDY    70  65  84 SW15      29.88R
WHEELING       CLOUDY    70  64  81 SW15      29.89R
KANKAKEE*      CLOUDY    75  63  65 SW24G32   29.94R
MORRIS*        CLOUDY    72  66  81 W24       29.91R
LEWIS AIRPORT* CLOUDY    69  66  89 SW15      29.90R
NORTHERLY IS     N/A     71  62  73 SW12        N/A
$$

WIZ051-052-058>065-066-070>072-251800-
SOUTHEAST WISCONSIN

CITY           SKY/WX    TMP DP  RH WIND       PRES   REMARKS
MILWAUKEE      PTSUNNY   73  60  63 SW23G32   29.82R
KENOSHA*       PTSUNNY   74  66  76 W16G25    29.84R
RACINE*        LGT RAIN  71  62  73 SW18G28   29.85R
BURLINGTON     CLOUDY    69  61  76 SW20      29.84R
WAUKESHA       PTSUNNY   70  63  78 SW16G23   29.83R
WEST BEND      CLOUDY    72  61  68 SW14G23   29.79R
$$

INZ001>003-010>013-019-020-251800-
NORTHWEST INDIANA

CITY           SKY/WX    TMP DP  RH WIND       PRES   REMARKS
GARY*          PTSUNNY   75  64  69 SW23G38   29.90S
MICHIGAN CITY* NOT AVBL
RENSSELAER*    NOT AVBL
VALPARAISO     PTSUNNY   76  59  55 SW28G43   29.94R
$$

LMZ740>746-251800-
SOUTHERN LAKE MICHIGAN

STATION/POSITION TIME  SKY/WX   TEMP WIND        PRES    VSBY
                                AIR  DIR/SP/G
                 (UTC)          (F)  (DEG/KT/KT) (MB)    (MI)
HARRISON CRIB    1600            66  210/ 26/ 34   N/A
BURNHAM HARBOR   1700            71  170/ 11/ 17   N/A
CALUMET HARBOR   1600            66  230/ 11/ 18   N/A
BURNS HARBOR     1600            73  200/ 19/ 29 1012.5R
MICHIGAN CITY    1600            73  180/ 22/ 32   N/A
$$

ABBREVIATIONS USED IN REMARKS
   TC - TEMPERATURE IN CELSIUS
  WCI - WIND CHILL INDEX
   HX - HEAT INDEX
  VSB - VISIBILITY
$$



USA.gov is the U.S. government's official web portal to all federal, state and local government web resources and services.